#timestamp,LO_Frequency,Hit 
1503885615.6,286046998.2,N
1503885635.4,286047001.0,N
1503885655.3,286047000.0,N
1503885675.1,286046999.0,N
1503885695.8,286047000.8,N
1503885715.7,286046996.6,N
1503885735.5,286046999.8,N
1503885755.3,286047002.4,N
1503885775.2,286046998.4,N
1503885795.9,286046998.9,N
1503885815.7,286046998.6,N
1503885835.6,286047000.2,N
1503885855.4,286047000.7,N
1503885875.2,286046998.3,N
1503885895.0,286046998.2,N
1503885896.0,286046998.2,N
1503885915.8,286046999.3,N
1503885935.6,286046999.5,N
1503885955.5,286046995.5,P
1503885975.3,286046996.9,N
1503885995.1,286046999.1,N
1503886015.9,286046999.3,N
1503886035.7,286046998.3,N
1503886055.5,286046998.8,N
1503886075.3,286046999.2,N
1503886095.2,286046997.2,N
1503886115.0,286046997.8,N
1503886115.9,286046997.8,N
1503886135.7,286046999.6,N
1503886155.6,286046999.1,N
1503886175.4,286047000.3,N
1503886195.2,286047002.5,N
1503886215.1,286046999.9,N
1503886216.0,286046999.9,N
1503886235.8,286047001.1,N
1503886255.6,286046998.1,N
1503886275.5,286046999.3,N
1503886295.3,286047003.7,N
1503886315.1,286047001.3,N
1503886335.9,286046999.5,N
1503886355.7,286046994.9,N
1503886375.5,286046996.3,N
1503886395.3,286046995.4,N
1503886415.2,286046995.5,N
1503886435.0,286046997.6,N
1503886435.9,286046997.6,N
1503886455.7,286046997.3,N
1503886475.6,286046996.8,N
1503886495.4,286047001.1,N
1503886515.2,286046997.0,N
1503886535.1,286046997.6,N
1503886536.0,286046997.6,N
1503886555.8,286046997.4,N
1503886575.6,286046999.2,N
1503886595.5,286046999.2,N
1503886615.3,286046999.6,N
1503886635.1,286046997.6,N
1503886655.9,286046996.2,N
1503886675.7,286046995.7,N
1503886695.5,286046996.8,N
1503886715.4,286046995.3,N
1503886735.2,286047001.0,N
1503886755.0,286046999.1,N
1503886755.9,286046999.1,N
1503886775.7,286046999.2,N
1503886795.6,286046996.5,N
1503886815.4,286046997.5,N
1503886835.2,286046997.1,N
1503886855.1,286046999.2,N
1503886856.0,286046999.2,N
1503886875.8,286046994.9,P
1503886895.6,286046996.6,N
1503886915.5,286046996.9,N
1503886935.3,286046996.7,P
1503886955.2,286047002.2,P
1503886975.9,286047004.3,N
1503886995.7,286047005.1,N
1503887015.5,286047005.0,N
1503887035.4,286047005.5,N
1503887055.2,286047007.4,N
1503887075.0,286047007.3,N
1503887075.9,286047007.3,N
1503887095.8,286047004.9,N
1503887115.6,286047007.9,N
1503887135.4,286047007.7,N
1503887155.3,286047010.7,N
1503887175.1,286047006.5,N
1503887176.0,286047006.5,N
1503887195.8,286047005.3,N
1503887215.7,286047008.9,N
1503887235.5,286047008.9,N
1503887255.3,286047009.0,N
1503887275.2,286047005.0,N
1503887295.9,286047005.2,N
1503887315.7,286047003.6,N
1503887335.5,286047001.3,N
1503887355.4,286047004.0,N
1503887375.2,286047007.5,N
1503887395.0,286047003.1,N
1503887395.9,286047003.1,N
1503887415.8,286047005.1,N
1503887435.6,286047008.8,N
1503887455.4,286047007.8,N
1503887475.3,286047008.1,N
1503887495.1,286047009.8,P
1503887515.8,286047003.5,N
1503887535.7,286047004.7,N
1503887555.5,286047005.2,N
1503887575.3,286047005.7,N
1503887595.2,286047005.9,P
1503887615.0,286046998.8,P
1503887615.9,286046998.8,N
1503887635.7,286047001.1,N
1503887655.6,286047000.2,N
1503887675.4,286047001.0,N
1503887695.2,286046999.4,N
1503887715.1,286046996.9,N
1503887716.0,286046996.9,N
1503887735.8,286046996.9,N
1503887755.6,286046999.3,N
1503887775.5,286046999.3,N
1503887795.3,286046999.1,N
1503887815.1,286046999.6,N
1503887835.9,286047000.8,N
1503887855.7,286046997.2,N
1503887875.5,286046998.6,N
1503887895.4,286046998.6,N
1503887915.2,286046997.3,N
1503887935.0,286046999.8,N
1503887935.9,286046999.8,N
1503887955.7,286047000.3,N
1503887975.6,286046999.4,N
1503887995.4,286046999.7,N
1503888015.2,286046998.7,N
1503888035.1,286047000.5,N
1503888036.0,286047000.5,N
1503888055.8,286047002.2,N
1503888075.6,286046999.9,N
1503888095.5,286047003.6,N
1503888115.3,286047003.4,N
1503888135.1,286047003.9,N
1503888155.9,286046998.6,N
1503888175.7,286046999.2,N
1503888195.5,286047001.2,N
1503888215.4,286047000.9,N
1503888235.2,286047001.5,N
1503888255.0,286047002.4,N
1503888255.9,286047002.4,N
1503888275.8,286047001.2,N
1503888295.6,286047000.4,N
1503888315.4,286047000.3,N
1503888335.2,286047002.3,N
1503888355.1,286047001.5,N
1503888356.0,286047001.5,N
1503888375.8,286047000.9,N
1503888395.6,286046999.7,N
1503888415.5,286047004.9,P
1503888435.3,286047005.9,N
1503888455.1,286047002.6,N
1503888475.9,286047000.3,N
1503888495.7,286047000.2,N
1503888515.5,286047000.2,N
1503888535.4,286047004.0,N
1503888555.2,286047001.3,N
1503888575.0,286047003.4,N
1503888575.9,286047003.4,N
1503888595.8,286047005.1,N
1503888615.6,286047003.6,N
1503888635.4,286047002.6,N
1503888655.3,286047000.7,N
1503888675.1,286047004.3,N
1503888676.0,286047004.3,N
1503888695.8,286047002.2,N
1503888715.7,286047002.5,N
1503888735.5,286047001.9,N
1503888755.3,286047006.7,P
1503888775.2,286047002.5,N
1503888795.9,286047000.7,N
1503888815.7,286047001.1,N
1503888835.6,286046998.6,N
1503888855.4,286047000.0,N
1503888875.2,286046998.5,N
1503888895.0,286046997.7,N
1503888896.0,286046997.7,N
1503888915.8,286046995.1,N
1503888935.6,286046993.7,N
1503888955.4,286046993.3,N
1503888975.3,286046993.5,N
1503888995.1,286046991.8,N
1503889015.8,286046990.6,N
1503889035.7,286046994.3,N
1503889055.5,286046992.9,N
1503889075.3,286046992.6,N
1503889095.2,286046990.1,N
1503889115.9,286046992.1,N
1503889135.7,286046991.7,N
1503889155.6,286046994.2,N
1503889175.4,286046991.7,N
1503889195.2,286046990.1,N
